Killeen/Ft Hood, TX

11:35 AM CDT on May 29, 2017 (GMT -0500)
Hood Army Air Field

Weather History for KHLR - September, 2014

Change the Weather History Date:

Saturday, September 13, 2014

  Actual Average Record
Temperature  
Mean Temperature 66 °F -  
Max Temperature 73 °F 88 °F 106 °F (2011)
Min Temperature 60 °F 69 °F 60 °F (2014)
Cooling Degree Days 2    
Growing Degree Days 16 (Base 50)    
Moisture  
Dew Point 28 °F    
Average Humidity 26    
Maximum Humidity 88    
Minimum Humidity 16    
Precipitation  
Precipitation 0.01 in - - ()
Sea Level Pressure  
Sea Level Pressure 30.21 in    
Wind  
Wind Speed 10 mph (North)    
Max Wind Speed 16 mph    
Max Gust Speed 24 mph    
Visibility 10 miles    
Events      
Averages and records for this station are not official NWS values.
T = Trace of Precipitation, MM = Missing Value Source: NWS Daily Summary

Daily Weather History Graph

Daily Weather History Graph

Search for Another Location

Airport or City:

Trip Planner

Search our weather history database for the weather conditions in past years. The results will help you decide how hot, cold, wet, or windy it might be!

Date:

Astronomy

Sep. 13, 2014 Rise Set
Actual Time 7:13 AM CDT 7:39 PM CDT
Civil Twilight 6:49 AM CDT 8:03 PM CDT
Nautical Twilight 6:21 AM CDT 8:31 PM CDT
Astronomical Twilight 5:52 AM CDT 9:00 PM CDT
Moon 11:05 PM CDT (9/13) 12:02 PM CDT (9/13)
Length of Visible Light 13h 13m
Length of Day
12h 25m
Waning Gibbous, 74% of the Moon is Illuminated
Sep 13
Waning Gibbous
Sep 15
Last Quarter
Sep 24
New
Oct 1
First Quarter
Oct 8
Full

Hourly Weather History & Observations

Time (CDT) Temp. Dew Point Humidity Pressure Visibility Wind Dir Wind Speed Gust Speed Precip Events Conditions
12:18 AM 62.6 °F 59.0 °F 88% 30.17 in 10.0 mi North 13.8 mph 24.2 mph N/A   Overcast
12:40 AM 62.6 °F 39.2 °F 42% 30.18 in 10.0 mi NNW 11.5 mph 20.7 mph N/A   Overcast
12:56 AM 63.0 °F 25.0 °F 24% 30.18 in 10.0 mi NNW 16.1 mph 20.7 mph N/A   Overcast
1:56 AM 62.1 °F 24.1 °F 23% 30.18 in 10.0 mi NNW 9.2 mph 19.6 mph N/A   Overcast
2:38 AM 62.6 °F 21.2 °F 20% 30.19 in 10.0 mi NNW 11.5 mph 19.6 mph N/A   Overcast
2:56 AM 61.0 °F 21.9 °F 22% 30.26 in 10.0 mi North 11.5 mph 20.7 mph N/A   Overcast
3:56 AM 61.0 °F 30.9 °F 32% 30.18 in 10.0 mi NNW 8.1 mph 17.3 mph 0.01 in   Overcast
4:56 AM 61.0 °F 30.9 °F 32% 30.25 in 10.0 mi NNW 10.4 mph 19.6 mph N/A   Overcast
5:56 AM 60.1 °F 30.9 °F 33% 30.26 in 10.0 mi NNW 10.4 mph 21.9 mph N/A   Overcast
6:32 AM 60.8 °F 30.2 °F 31% 30.18 in 10.0 mi North 11.5 mph 21.9 mph N/A   Overcast
6:56 AM 60.1 °F 30.9 °F 33% 30.27 in 10.0 mi NNW 12.7 mph 23.0 mph N/A   Overcast
7:56 AM 60.1 °F 30.9 °F 33% 30.22 in 10.0 mi NNW 11.5 mph 18.4 mph N/A   Overcast
8:54 AM 60.8 °F 30.2 °F 31% 30.23 in 10.0 mi NNW 12.7 mph 18.4 mph N/A   Overcast
8:56 AM 60.1 °F 30.0 °F 32% 30.32 in 10.0 mi NNW 11.5 mph 18.4 mph N/A   Overcast
9:56 AM 61.0 °F 28.9 °F 30% 30.25 in 10.0 mi North 15.0 mph 20.7 mph N/A   Overcast
10:56 AM 62.1 °F 28.9 °F 29% 30.25 in 10.0 mi North 8.1 mph 19.6 mph N/A   Overcast
11:56 AM 63.0 °F 28.0 °F 27% 30.26 in 10.0 mi North 12.7 mph - N/A   Overcast
12:56 PM 64.9 °F 27.0 °F 24% 30.24 in 10.0 mi North 15.0 mph 18.4 mph N/A   Overcast
1:56 PM 66.9 °F 28.0 °F 23% 30.22 in 10.0 mi North 9.2 mph - N/A   Overcast
2:11 PM 66.2 °F 26.6 °F 23% 30.22 in 10.0 mi North 6.9 mph - N/A   Overcast
2:56 PM 70.0 °F 27.0 °F 20% 30.29 in 10.0 mi North 6.9 mph 16.1 mph N/A   Overcast
3:56 PM 71.1 °F 25.0 °F 18% 30.19 in 10.0 mi North 9.2 mph - N/A   Overcast
4:56 PM 72.0 °F 24.1 °F 17% 30.19 in 10.0 mi North 9.2 mph - N/A   Overcast
5:56 PM 73.0 °F 25.0 °F 17% 30.18 in 10.0 mi North 6.9 mph - N/A   Overcast
6:13 PM 73.4 °F 24.8 °F 16% 30.18 in 10.0 mi North 6.9 mph - N/A   Overcast
6:56 PM 72.0 °F 24.1 °F 17% 30.18 in 10.0 mi Variable 6.9 mph - N/A   Overcast
7:06 PM 71.6 °F 24.8 °F 17% 30.18 in 10.0 mi North 5.8 mph - N/A   Overcast
7:34 PM 71.6 °F 24.8 °F 17% 30.17 in 10.0 mi North 6.9 mph - N/A   Mostly Cloudy
7:56 PM 71.1 °F 25.0 °F 18% 30.17 in 10.0 mi North 5.8 mph - N/A   Mostly Cloudy
8:56 PM 71.1 °F 24.1 °F 17% 30.19 in 10.0 mi NNE 4.6 mph - N/A   Clear
9:56 PM 70.0 °F 24.1 °F 18% 30.20 in 10.0 mi Calm Calm - N/A   Mostly Cloudy
10:56 PM 70.0 °F 25.0 °F 18% 30.20 in 10.0 mi Calm Calm - N/A   Overcast
11:08 PM 69.8 °F 24.8 °F 18% 30.20 in 10.0 mi Calm Calm - N/A   Overcast
11:56 PM 70.0 °F 25.0 °F 18% 30.20 in 10.0 mi NNE 5.8 mph - N/A   Overcast